Terminal Aerodrome Forecast
Issued by NWS

Home | Current Version | Previous Version | Text Only | Print | Product List | Glossary On
Versions: 1 2 3 4 5 6 7 8 9 10 11 12 13 14 15 16 17 18 19 20 21 22 23 24 25 26 27 28 29 30 31 32 33 34 35 36 37 38 39 40 41 42 43 44 45 46 47
000
FTUS45 KBOU 261625 AAC
TAFAPA
TAF AMD
KAPA 261625Z 2616/2712 12010KT P6SM FEW030 SCT150
     FM261800 33007KT P6SM FEW060 SCT150
     FM270100 24006KT P6SM FEW140
     FM270300 21009KT P6SM FEW200=

USA.gov is the U.S. government's official web portal to all federal, state and local government web resources and services.